sat.trackr.live / text

‹ back to catalog

YAOGAN-30 05B

NORAD 43171 · 2018-011C

PAYLOAD ACTIVE UNKNOWN

§ Identity

Operator
Country
PRC
Launch date
2018-01-25
Launch site
XICLF
Launch vehicle
Mass (kg)
RCS (m²)

External: N2YO · Heavens-Above · Gunter

§ Orbital elements

Epoch: 2026-09-20T03:53:46.011840Z

Period
95.81 min
Inclination
34.9954°
Eccentricity
0.0001017
Mean motion
15.03021962 rev/d
Perigee alt
556.9 km
Apogee alt
558.3 km
Semi-major
6,935.7 km
B*
1.2141e-4
RAAN
291.6832°
Arg perigee
101.4794°
Mean anomaly
258.6029°
Rev number
47,251

§ Raw data

YAOGAN-30 05B1 43171U 18011C   26263.16233810  .00001638  00000+0  12141-3 0  99992 43171  34.9954 291.6832 0001017 101.4794 258.6029 15.03021962472518

JSON: /api/v1/satellites/43171 · /tle

For live sub-satellite position, see the globe view (requires WebGL).

§ Visibility from observer

Set your observer location to see the next 7 days of passes ≥ 10°. The values pass through the URL so the page stays shareable.

No JS? Fill the form by hand. The geolocation button needs JavaScript.